FW7131 Weather Reports


time (UTC)temp
F
wind
direction
speed
knots
gust
knots
rain 1hr
in
rain 24hr
in
rain mn
in
humidity
%
barometer
mb
20260507161448 81 192 1.7 1.7 0.00 0.00 0.00 22 1015.1
20260507160948 80 192 1.7 2.6 0.00 0.00 0.00 22 1015.1
20260507155947 79 192 0.9 3.5 0.00 0.00 0.00 24 1015.3
20260507155448 79 193 0.9 3.5 0.00 0.00 0.00 26 1015.2
20260507154447 78 175 0.9 2.6 0.00 0.00 0.00 27 1015.2
20260507153947 78 145 0.0 4.3 0.00 0.00 0.00 28 1015.3
20260507152947 77 153 1.7 3.5 0.00 0.00 0.00 29 1015.3
20260507152447 77 154 0.9 3.5 0.00 0.00 0.00 28 1015.2
20260507151948 77 116 0.9 3.5 0.00 0.00 0.00 29 1015.3
20260507151447 77 111 0.9 3.5 0.00 0.00 0.00 30 1015.3
20260507150947 76 119 2.6 5.2 0.00 0.00 0.00 29 1015.3
20260507150447 76 115 0.0 5.2 0.00 0.00 0.00 30 1015.2
20260507145947 76 136 0.0 3.5 0.00 0.00 0.00 30 1015.3
20260507145447 76 238 0.0 1.7 0.00 0.00 0.00 30 1015.5
20260507144947 76 239 0.0 0.9 0.00 0.00 0.00 31 1015.3
20260507144448 76 239 0.0 0.9 0.00 0.00 0.00 31 1015.4
20260507143947 75 257 0.9 2.6 0.00 0.00 0.00 30 1015.5
20260507143447 75 277 0.0 3.5 0.00 0.00 0.00 32 1015.5
20260507141947 73 148 0.0 0.9 0.00 0.00 0.00 31 1015.4
20260507141447 72 148 0.0 1.7 0.00 0.00 0.00 33 1015.1
20260507140947 71 148 0.0 2.6 0.00 0.00 0.00 33 1015.1
20260507140447 71 150 0.9 2.6 0.00 0.00 0.00 33 1015.1
20260507135947 70 152 0.0 0.9 0.00 0.00 0.00 34 1015.2
20260507135447 69 152 0.0 1.7 0.00 0.00 0.00 35 1015.1
20260507134947 68 152 0.0 1.7 0.00 0.00 0.00 35 1015.1
20260507134447 68 153 0.0 0.9 0.00 0.00 0.00 36 1014.9
20260507133947 67 56 0.0 0.9 0.00 0.00 0.00 36 1014.9
20260507133447 67 56 0.0 0.9 0.00 0.00 0.00 36 1015.0
20260507132947 67 56 0.0 0.9 0.00 0.00 0.00 35 1014.9
20260507132447 67 56 0.0 3.5 0.00 0.00 0.00 35 1014.8
20260507131947 67 56 0.0 6.1 0.00 0.00 0.00 35 1014.7
20260507131447 67 11 1.7 6.1 0.00 0.00 0.00 34 1014.6
20260507130447 67 360 3.5 8.7 0.00 0.00 0.00 35 1014.5
20260507125947 67 351 5.2 7.0 0.00 0.00 0.00 34 1014.7
20260507125447 67 333 1.7 7.0 0.00 0.00 0.00 34 1014.7
20260507124948 67 339 3.5 5.2 0.00 0.00 0.00 34 1014.7
20260507124447 67 340 2.6 5.2 0.00 0.00 0.00 34 1014.8
20260507123947 67 346 2.6 5.2 0.00 0.00 0.00 34 1014.7
20260507123447 67 360 3.5 4.3 0.00 0.00 0.00 34 1014.7
20260507122447 67 5 0.0 7.0 0.00 0.00 0.00 33 1014.8
20260507120947 68 5 4.3 7.8 0.00 0.00 0.00 33 1014.7
20260507120447 68 355 1.7 8.7 0.00 0.00 0.00 33 1014.7
20260507115947 68 336 3.5 8.7 0.00 0.00 0.00 33 1014.8
20260507115447 67 355 5.2 7.8 0.00 0.00 0.00 33 1014.7
20260507114447 67 346 1.7 4.3 0.00 0.00 0.00 34 1014.7
20260507113947 67 345 1.7 5.2 0.00 0.00 0.00 34 1014.8
20260507113448 68 344 2.6 5.2 0.00 0.00 0.00 33 1014.8
20260507111947 67 360 4.3 7.0 0.00 0.00 0.00 33 1014.7
20260507110947 68 355 4.3 7.8 0.00 0.00 0.00 33 1014.8
20260507105947 68 342 2.6 7.0 0.00 0.00 0.00 32 1014.9
20260507105447 68 5 2.6 7.0 0.00 0.00 0.00 32 1014.9
20260507104947 68 348 3.5 5.2 0.00 0.00 0.00 32 1014.9
20260507104447 68 351 3.5 5.2 0.00 0.00 0.00 33 1015.0
20260507103947 67 355 2.6 5.2 0.00 0.00 0.00 33 1014.9
20260507103446 67 355 2.6 5.2 0.00 0.00 0.00 33 1015.0
20260507102447 66 265 2.6 3.5 0.00 0.00 0.00 35 1015.0
20260507101947 65 251 0.0 0.9 0.00 0.00 0.00 36 1015.0
20260507101446 66 251 0.0 0.0 0.00 0.00 0.00 36 1015.1
20260507100947 66 251 0.0 1.7 0.00 0.00 0.00 36 1015.2
20260507100446 66 251 0.0 1.7 0.00 0.00 0.00 35 1015.2
20260507095946 66 251 0.0 1.7 0.00 0.00 0.00 35 1015.2
20260507095446 67 251 0.9 1.7 0.00 0.00 0.00 35 1015.4
20260507094946 66 250 0.0 1.7 0.00 0.00 0.00 35 1015.3
20260507094446 67 250 0.0 1.7 0.00 0.00 0.00 35 1015.4
20260507093947 67 250 0.0 1.7 0.00 0.00 0.00 35 1015.4
20260507092947 67 250 0.9 0.9 0.00 0.00 0.00 35 1015.5
20260507092447 67 250 0.0 0.0 0.00 0.00 0.00 34 1015.5
20260507091947 67 250 0.0 0.0 0.00 0.00 0.00 34 1015.6
20260507090946 67 250 0.0 0.0 0.00 0.00 0.00 34 1015.7
20260507085946 68 250 0.0 0.0 0.00 0.00 0.00 33 1015.6
20260507085447 67 250 0.0 0.0 0.00 0.00 0.00 33 1015.6
20260507084946 67 250 0.0 0.0 0.00 0.00 0.00 33 1015.6
20260507084447 67 250 0.0 0.0 0.00 0.00 0.00 33 1015.7
20260507083946 67 250 0.0 0.0 0.00 0.00 0.00 34 1015.7
20260507083446 67 249 0.0 0.0 0.00 0.00 0.00 34 1015.8
20260507082947 67 249 0.0 0.0 0.00 0.00 0.00 34 1015.8
20260507082447 67 249 0.0 0.0 0.00 0.00 0.00 34 1015.8
20260507081946 67 249 0.0 0.0 0.00 0.00 0.00 34 1015.8
20260507081447 67 249 0.0 0.0 0.00 0.00 0.00 34 1015.8
20260507080946 68 249 0.0 0.0 0.00 0.00 0.00 34 1015.9
20260507080446 68 249 0.0 0.0 0.00 0.00 0.00 34 1015.9
20260507075946 68 249 0.0 0.0 0.00 0.00 0.00 35 1016.0
20260507075446 68 249 0.0 0.9 0.00 0.00 0.00 34 1016.0
20260507074946 68 249 0.0 0.9 0.00 0.00 0.00 35 1016.0
20260507074446 68 249 0.9 0.9 0.00 0.00 0.00 34 1016.0
20260507073946 68 249 0.0 0.0 0.00 0.00 0.00 35 1016.0
20260507073446 68 249 0.0 0.0 0.00 0.00 0.00 34 1016.0
20260507072946 69 249 0.0 0.0 0.00 0.00 0.00 34 1016.0
20260507071946 69 249 0.0 0.0 0.00 0.00 0.00 33 1015.9
20260507071446 69 249 0.0 0.0 0.00 0.00 0.00 33 1015.8
20260507070946 70 249 0.0 0.0 0.00 0.00 0.00 32 1015.9
20260507070516 70 249 0.0 0.9 0.00 0.00 0.00 32 1015.9
20260507065946 70 249 0.0 0.9 0.00 0.00 0.00 32 1015.8
20260507065446 70 249 0.0 0.9 0.00 0.00 0.00 32 1015.8
20260507064946 70 249 0.0 0.9 0.00 0.00 0.00 32 1015.9
20260507064447 70 249 0.0 0.9 0.00 0.00 0.00 32 1015.8
20260507063946 70 249 0.0 0.9 0.00 0.00 0.00 32 1015.8
20260507063446 70 249 0.9 0.9 0.00 0.00 0.00 32 1015.8
20260507062946 70 249 0.0 0.9 0.00 0.00 0.00 32 1015.8
20260507062446 70 249 0.0 0.9 0.00 0.00 0.00 32 1015.9
20260507061946 70 249 0.0 0.0 0.00 0.00 0.00 33 1015.8
20260507061446 70 249 0.0 0.9 0.00 0.00 0.00 32 1015.8
20260507060946 70 249 0.0 0.9 0.00 0.00 0.00 33 1015.9
20260507060516 70 249 0.0 0.9 0.00 0.00 0.00 33 1015.8
20260507055947 70 249 0.0 0.0 0.00 0.00 0.00 33 1015.8
20260507055446 70 249 0.0 0.0 0.00 0.00 0.00 32 1015.8
20260507054946 71 249 0.0 0.9 0.00 0.00 0.00 32 1015.7
20260507054447 71 249 0.0 0.9 0.00 0.00 0.00 32 1015.7
20260507053946 71 249 0.0 0.0 0.00 0.00 0.00 32 1015.7
20260507053446 71 249 0.0 0.0 0.00 0.00 0.00 32 1015.7
20260507052946 71 249 0.0 0.0 0.00 0.00 0.00 32 1015.6
20260507051946 72 249 0.0 0.0 0.00 0.00 0.00 31 1015.8
20260507051446 72 249 0.0 0.0 0.00 0.00 0.00 32 1015.7
20260507050946 72 249 0.0 0.0 0.00 0.00 0.00 31 1015.6
20260507050446 72 249 0.0 0.0 0.00 0.00 0.00 30 1015.7
20260507045947 72 249 0.0 0.0 0.00 0.00 0.00 30 1015.5
20260507044946 73 249 0.0 0.0 0.00 0.00 0.00 30 1015.5
20260507044446 73 249 0.0 0.0 0.00 0.00 0.00 29 1015.4
20260507043946 73 249 0.0 0.0 0.00 0.00 0.00 29 1015.4
20260507043446 73 249 0.0 0.0 0.00 0.00 0.00 29 1015.4
20260507042946 74 249 0.0 0.0 0.00 0.00 0.00 29 1015.4
20260507041446 75 249 0.0 0.0 0.00 0.00 0.00 27 1015.3
20260507040517 75 249 0.0 0.0 0.00 0.00 0.00 27 1015.1
20260507035446 76 249 0.0 0.0 0.00 0.00 0.00 26 1015.0
20260507034946 76 249 0.0 0.0 0.00 0.00 0.00 26 1014.9
20260507034446 76 249 0.0 0.0 0.00 0.00 0.00 26 1014.8
20260507033946 76 249 0.0 0.0 0.00 0.00 0.00 25 1014.7
20260507033446 76 249 0.0 0.0 0.00 0.00 0.00 25 1014.7
20260507032946 76 249 0.0 0.0 0.00 0.00 0.00 25 1014.7
20260507032446 76 249 0.0 0.0 0.00 0.00 0.00 25 1014.6
20260507030948 77 249 0.0 0.9 0.00 0.00 0.00 24 1014.4
20260507030515 77 249 0.0 0.9 0.00 0.00 0.00 24 1014.3
20260507025946 77 249 0.0 1.7 0.00 0.00 0.00 24 1014.1
20260507025446 77 249 0.0 1.7 0.00 0.00 0.00 24 1014.0
20260507024445 78 249 0.0 0.0 0.00 0.00 0.00 23 1013.9
20260507023946 78 249 0.0 0.9 0.00 0.00 0.00 23 1014.0
20260507023447 79 249 0.0 0.9 0.00 0.00 0.00 23 1013.9
20260507022945 79 249 0.0 1.7 0.00 0.00 0.00 23 1013.9
20260507022446 79 249 0.0 1.7 0.00 0.00 0.00 22 1013.9
20260507021945 79 249 0.0 4.3 0.00 0.00 0.00 22 1013.8
20260507020515 80 246 0.0 2.6 0.00 0.00 0.00 22 1013.8
20260507015945 81 244 0.0 1.7 0.00 0.00 0.00 22 1013.6
20260507014945 81 243 0.9 5.2 0.00 0.00 0.00 22 1013.6
20260507014446 81 240 2.6 6.1 0.00 0.00 0.00 21 1013.3
20260507013945 81 269 1.7 6.1 0.00 0.00 0.00 21 1013.4
20260507013446 81 278 1.7 5.2 0.00 0.00 0.00 21 1013.4
20260507012946 81 279 5.2 5.2 0.00 0.00 0.00 21 1013.4
20260507012446 82 282 2.6 3.5 0.00 0.00 0.00 21 1013.5
20260507011945 82 286 0.0 3.5 0.00 0.00 0.00 21 1013.5
20260507011445 82 130 0.0 9.6 0.00 0.00 0.00 21 1013.6
20260507010515 84 244 0.0 2.6 0.00 0.00 0.00 20 1013.6
20260507005945 84 244 0.0 4.3 0.00 0.00 0.00 20 1013.4
20260507005445 85 245 0.0 7.0 0.00 0.00 0.00 20 1013.5
20260507004946 85 242 0.0 7.0 0.00 0.00 0.00 20 1013.5
20260507004445 85 245 0.9 2.6 0.00 0.00 0.00 20 1013.5
20260507003945 84 229 0.0 4.3 0.00 0.00 0.00 20 1013.4
20260507002946 84 227 0.9 2.6 0.00 0.00 0.00 21 1013.3
20260507002446 84 200 0.9 3.5 0.00 0.00 0.00 21 1013.2
20260507001945 83 200 0.0 6.1 0.00 0.00 0.00 21 1013.3
20260507000515 84 224 1.7 6.1 0.00 0.00 0.00 21 1013.3
20260506235445 84 234 0.9 3.5 0.00 0.00 0.00 20 1013.4
20260506234945 85 233 1.7 6.1 0.00 0.00 0.00 20 1013.3
20260506234445 84 240 0.9 6.1 0.00 0.00 0.00 20 1013.3
20260506233945 84 346 0.0 5.2 0.00 0.00 0.00 20 1013.3
20260506233446 84 346 2.6 5.2 0.00 0.00 0.00 20 1013.4
20260506232945 84 329 0.9 5.2 0.00 0.00 0.00 20 1013.5
20260506232445 85 333 0.9 5.2 0.00 0.00 0.00 21 1013.5
20260506230945 84 229 0.0 3.5 0.00 0.00 0.00 21 1013.7
20260506225946 84 228 0.9 5.2 0.00 0.00 0.00 22 1013.8
20260506225445 84 225 3.5 5.2 0.00 0.00 0.00 21 1013.9
20260506223945 84 229 0.9 6.1 0.00 0.00 0.00 21 1014.2
20260506222945 83 223 0.0 8.7 0.00 0.00 0.00 21 1014.1
20260506222445 83 223 0.0 8.7 0.00 0.00 0.00 21 1014.3
20260506220945 83 243 1.7 6.1 0.00 0.00 0.00 21 1014.5
20260506215945 83 257 0.9 5.2 0.00 0.00 0.00 22 1014.8
20260506213945 82 321 1.7 7.8 0.00 0.00 0.00 22 1014.8
20260506213445 82 242 3.5 6.1 0.00 0.00 0.00 23 1015.0
20260506212945 82 317 0.0 7.0 0.00 0.00 0.00 22 1015.1
20260506212445 83 265 2.6 7.0 0.00 0.00 0.00 22 1015.2
20260506211945 82 256 0.0 5.2 0.00 0.00 0.00 22 1015.1
20260506211445 82 242 1.7 5.2 0.00 0.00 0.00 22 1015.2
20260506210946 81 258 2.6 3.5 0.00 0.00 0.00 23 1015.4
20260506210516 81 261 0.0 3.5 0.00 0.00 0.00 22 1015.5
20260506205945 80 255 1.7 4.3 0.00 0.00 0.00 23 1015.5
20260506205445 80 279 0.0 4.3 0.00 0.00 0.00 23 1015.6
20260506204945 80 309 0.0 4.3 0.00 0.00 0.00 22 1015.8
20260506204445 82 313 0.9 4.3 0.00 0.00 0.00 23 1015.9
20260506203945 81 238 0.0 7.0 0.00 0.00 0.00 23 1015.8
20260506203444 81 259 0.0 7.0 0.00 0.00 0.00 23 1016.0
20260506202945 80 299 1.7 7.0 0.00 0.00 0.00 23 1016.0
20260506202445 79 33 2.6 4.3 0.00 0.00 0.00 24 1016.0
20260506201444 79 127 3.5 7.0 0.00 0.00 0.00 23 1016.0
20260506200945 79 317 1.7 6.1 0.00 0.00 0.00 24 1016.1
20260506195945 80 256 0.0 6.1 0.00 0.00 0.00 23 1016.2
20260506195445 81 259 2.6 8.7 0.00 0.00 0.00 24 1016.4
20260506194945 81 249 4.3 8.7 0.00 0.00 0.00 24 1016.3
20260506194444 79 10 0.9 3.5 0.00 0.00 0.00 24 1016.3
20260506193445 79 244 0.9 7.0 0.00 0.00 0.00 24 1016.4
20260506192944 79 229 7.0 7.0 0.00 0.00 0.00 23 1016.5
20260506192445 80 315 2.6 6.1 0.00 0.00 0.00 24 1016.5
20260506191944 78 219 0.0 7.8 0.00 0.00 0.00 26 1016.5
20260506191444 79 239 5.2 7.8 0.00 0.00 0.00 26 1016.6
20260506190944 79 244 1.7 6.1 0.00 0.00 0.00 27 1016.7
20260506190514 79 163 4.3 5.2 0.00 0.00 0.00 26 1016.7
20260506185944 80 159 1.7 7.0 0.00 0.00 0.00 26 1016.8
20260506185444 78 159 1.7 7.0 0.00 0.00 0.00 28 1017.0
20260506184945 77 244 0.9 7.0 0.00 0.00 0.00 28 1017.0
20260506184445 78 240 1.7 7.0 0.00 0.00 0.00 27 1016.9
20260506183945 77 252 0.9 8.7 0.00 0.00 0.00 28 1017.2
20260506182944 76 212 2.6 6.1 0.00 0.00 0.00 29 1017.2
20260506182444 77 192 0.9 6.1 0.00 0.00 0.00 27 1017.4
20260506181945 76 232 2.6 8.7 0.00 0.00 0.00 30 1017.4
20260506181445 77 219 6.1 8.7 0.00 0.00 0.00 29 1017.4
20260506180444 76 216 0.0 6.1 0.00 0.00 0.00 29 1017.4
20260506175944 77 188 0.0 4.3 0.00 0.00 0.00 28 1017.7
20260506175445 75 188 0.9 5.2 0.00 0.00 0.00 30 1017.5
20260506174945 76 144 1.7 5.2 0.00 0.00 0.00 30 1017.6
20260506174444 75 261 1.7 3.5 0.00 0.00 0.00 30 1017.6
20260506173944 75 257 2.6 6.1 0.00 0.00 0.00 30 1017.7
20260506173444 75 261 0.0 6.1 0.00 0.00 0.00 31 1017.6
20260506172944 74 270 0.0 2.6 0.00 0.00 0.00 32 1017.5
20260506172445 75 270 0.0 5.2 0.00 0.00 0.00 31 1017.6
20260506171944 75 265 0.0 5.2 0.00 0.00 0.00 31 1017.7
20260506171444 74 38 0.9 3.5 0.00 0.00 0.00 32 1017.5
20260506170944 73 44 0.9 4.3 0.00 0.00 0.00 33 1017.4
20260506165944 72 331 1.7 4.3 0.00 0.00 0.00 32 1017.4
20260506164944 73 194 3.5 4.3 0.00 0.00 0.00 32 1017.5
20260506164444 73 193 1.7 4.3 0.00 0.00 0.00 33 1017.4
20260506163944 73 211 0.0 3.5 0.00 0.00 0.00 32 1017.4
20260506163444 72 101 0.0 1.7 0.00 0.00 0.00 33 1017.4
20260506162944 72 103 0.9 3.5 0.00 0.00 0.00 34 1017.4
20260506162444 72 103 0.0 3.5 0.00 0.00 0.00 33 1017.4